Regional Weather Roundup
Issued by NWS

Home | Current Version | Previous Version | Text Only | Print | Product List | Glossary On
Versions: 1 2 3 4 5 6 7 8 9 10 11 12 13 14 15 16 17 18 19 20 21 22 23 24 25 26 27 28 29 30 31 32 33 34 35 36 37 38 39 40 41 42 43 44 45 46 47 48 49 50
000
ASUS43 KLMK 171910
RWRKY
KENTUCKY REGIONAL WEATHER ROUNDUP
NATIONAL WEATHER SERVICE LOUISVILLE KY
300 PM EDT THU APR 17 2014

NOTE "FAIR" INDICATES FEW OR NO CLOUDS BELOW 12,000 FEET
WITH NO SIGNIFICANT WEATHER AND/OR OBSTRUCTIONS TO VISIBILITY.

KYZ001>023-026-027-061>063-070>075-172000-
WESTERN AND SOUTH CENTRAL KENTUCKY

CITY           SKY/WX    TMP DP  RH WIND       PRES   REMARKS
PADUCAH        SUNNY     68  40  35 SW5       30.26F
HENDERSON      MOSUNNY   64  39  39 S6        30.28F
OWENSBORO      SUNNY     65  40  39 SW9G16    30.30F
HOPKINSVILLE   SUNNY     66  36  32 SE8       30.28F
BOWLING GREEN  SUNNY     65  34  31 CALM      30.31F
GLASGOW        SUNNY     65  34  32 SE6       30.32F
$$

KYZ024-025-028>034-038-045-046-053-172000-
NORTH CENTRAL KENTUCKY

CITY           SKY/WX    TMP DP  RH WIND       PRES   REMARKS
LOUISVILLE/SDF PTSUNNY   67  34  29 S9        30.30F
LOUISVILLE/LOU SUNNY     67  34  29 VRB5      30.31F
FORT KNOX      FAIR      65  35  32 VRB6      30.30F
$$

KYZ035>037-039>044-047>052-055>060-089>105-172000-
NORTHEAST KENTUCKY

CITY           SKY/WX    TMP DP  RH WIND       PRES   REMARKS
LEXINGTON      SUNNY     66  33  29 VRB7      30.34F
COVINGTON      MOSUNNY   65  34  31 SW13G20   30.32F
FRANKFORT      SUNNY     65  34  31 S6        30.32F
$$

KYZ054-064>069-076>088-106>120-172000-
SOUTHEAST KENTUCKY

CITY           SKY/WX    TMP DP  RH WIND       PRES   REMARKS
JACKSON        SUNNY     66  21  18 MISG      30.35F
LONDON         SUNNY     68  25  19 NE5       30.34F
SOMERSET       SUNNY     64  28  25 SW5       30.34F
MIDDLESBORO    SUNNY     67  24  19 SE5       30.35F
MONTICELLO     CLEAR     66  28  24 CALM      30.34F
$$




USA.gov is the U.S. government's official web portal to all federal, state and local government web resources and services.